H-2A R/B (38341 NORAD) Tracking and Keplerian Element Data

This shows tracking and keplerian element data for the satellite.

Feedback or suggestion? Click here.




ElementValue
Catalog38341
NameH-2A R/B
Epoch Orbit35639
Epoch Day352.86690161
Epoch Year2018
RAAN105.0935
Inclination98.4325
Eccentricity0.0055639
Argument of Perigee188.3823
Mean Anonmoly171.6465
Mean Motion14.83828743
Decay Rate9E-07
L11 38341U 12025E 18352.86690161 .00000090 00000-0 18103-4 0 9991
L22 38341 98.4325 105.0935 0055639 188.3823 171.6465 14.83828743356390

Live tracking and technical data element details for H-2A R/B (NORAD 38341). H-2A R/B can be tracked NOW for your location showing map with azimuth and elevation plus other details from your city location.

Track the satellite on the map from your city or location and see movement details for azimuth, elevation, latitude, longitude, range, height, and movement on the map or in text.







IsCatalogInMostPopularTable: catalog: 38341, numindb: 162
Update: records affected: 1



GetName: 38341 H-2A R/B

Hit Count: updated at: Wed, 19 Dec 2018 15:18:02 GMT